This is the latest recevied weather packets stored in our database for station/object KC3UTO. If no packets are shown the sender has not sent any weather packets the latest 10 day(s).
| Time | Temp. | Humidity | Pressure | Rain* | Wind** | Luminosity | Snow |
|---|---|---|---|---|---|---|---|
| 1776974415 | 25° C | 26% | 1010.3 hPa | 0 mm | - | 103 W/m² | - |
| 1776974112 | 25° C | 26% | 1010.4 hPa | 0 mm | - | 105 W/m² | - |
| 1776973809 | 25° C | 25% | 1010.3 hPa | 0 mm | - | 132 W/m² | - |
| 1776973507 | 25° C | 26% | 1010.6 hPa | 0 mm | - | 130 W/m² | - |
| 1776973204 | 25° C | 26% | 1010.5 hPa | 0 mm | - | 103 W/m² | - |
| 1776972901 | 25° C | 26% | 1010.5 hPa | 0 mm | - | 98 W/m² | - |
| 1776972596 | 25° C | 27% | 1010.6 hPa | 0 mm | - | 216 W/m² | - |
| 1776972295 | 25° C | 27% | 1010.8 hPa | 0 mm | - | 140 W/m² | - |
| 1776971990 | 25° C | 28% | 1011 hPa | 0 mm | - | 169 W/m² | - |
| 1776971687 | 25.56° C | 28% | 1011 hPa | 0 mm | - | 171 W/m² | - |
| 1776971384 | 25.56° C | 31% | 1011 hPa | 0 mm | - | 733 W/m² | - |
| 1776971081 | 25° C | 30% | 1011.1 hPa | 0 mm | - | 733 W/m² | - |
| 1776970778 | 25° C | 27% | 1011.3 hPa | 0 mm | - | 685 W/m² | - |
| 1776970476 | 25° C | 29% | 1011.2 hPa | 0 mm | - | 673 W/m² | - |
| 1776970172 | 25° C | 29% | 1011.3 hPa | 0 mm | - | 734 W/m² | - |
| 1776969868 | 25° C | 30% | 1011.4 hPa | 0 mm | - | 726 W/m² | - |
| 1776969566 | 24.44° C | 30% | 1011.3 hPa | 0 mm | - | 703 W/m² | - |
| 1776969262 | 24.44° C | 29% | 1011.5 hPa | 0 mm | - | 760 W/m² | - |
| 1776968958 | 24.44° C | 30% | 1011.5 hPa | 0 mm | - | 777 W/m² | - |
| 1776968657 | 24.44° C | 32% | 1011.3 hPa | 0 mm | - | 751 W/m² | - |
| 1776968354 | 24.44° C | 32% | 1011.8 hPa | 0 mm | - | 772 W/m² | - |
| 1776968050 | 24.44° C | 33% | 1011.8 hPa | 0 mm | - | 773 W/m² | - |
| 1776967747 | 23.89° C | 30% | 1011.7 hPa | 0 mm | - | 720 W/m² | - |
| 1776967443 | 23.89° C | 33% | 1011.9 hPa | 0 mm | - | 720 W/m² | - |
| 1776967141 | 23.33° C | 34% | 1011.9 hPa | 0 mm | - | 761 W/m² | - |
* Rain latest hour (hover to see other rain measurements)
** Current wind speed in m/s (hover to see current wind gust speed)